Portada
METAR-TAF:

METAR-TAF

Aeroports :

Lawrence Municipal Airport

Lawrence, Massachusetts, Estats Units d'Amèrica

latitud: 42-42-47N, longitud: 071-07-33W, altitud: 45 m

Observació

L'informe es va fer fa 46 minuts, a les 13:54 UTC
Vent 8 kt del Nord
Temperatura 2°C
Humitat 64%
Pressió 1014 hPa
Visibilitat: 16.1 km
Cel cobert a una alçada de 1500 ft

METAR: KLWM 181354Z 01008KT 10SM OVC015 02/M04 A2995 RMK AO2 SLP144 T00221039

Hora: 09:40 (14:40 UTC)


TAF: manca

Observacions i pronòstics meteorològics de més de 4000 aeroports (METAR i TAF).

Les estacions disponibles són els punts grocs i vermells al mapa.

Posi el ratolí al punt desitjat per veure el nom de l'estació.

Feu clic per veure les observacions i els pronòstics meteorològics.

Per canviar el mapa: feu clic els botons verds amb una creu de color negre per apropar; al botó verd amb un guió per allunyar la imatge; o en les fletxes verdes per a mapes adjacents.


METAR-TAF: